Regional Weather Roundup
Issued by NWS

Home | Current Version | Previous Version | Text Only | Print | Product List | Glossary Off
Versions: 1 2 3 4 5 6 7 8 9 10 11 12 13 14 15 16 17 18 19 20 21 22 23 24 25 26 27 28 29 30 31 32 33 34 35 36 37 38 39 40 41 42 43 44 45 46 47 48 49 50

928
ASUS43 KDMX 231603
RWRIA

WEATHER ROUNDUP FOR IOWA
NATIONAL WEATHER SERVICE DES MOINES IA
1100 AM CDT SAT JUL 23 2016

NOTE: "FAIR" INDICATES FEW OR NO CLOUDS BELOW 12,000 FEET WITH NO
SIGNIFICANT WEATHER AND/OR OBSTRUCTIONS TO VISIBILITY.

* - THESE STATIONS ARE NOT NWS STATIONS...THUS NOT UNDER NWS
QUALITY CONTROL.  THEY ALSO DO NOT REPORT WEATHER SUCH
AS PRECIPITATION OR FOG.

IAZ001>003-012>014-020>022-031>034-043>046-231700-
   NORTHWEST IOWA

CITY           SKY/WX    TMP DP  RH WIND       PRES   REMARKS
CARROLL *      MOSUNNY   82  75  78 CALM      29.88S HX  89
CHEROKEE *     PTSUNNY   79  77  93 SE12G18   29.83F HX  83
DENISON *      DRIZZLE   79  75  89 E3        29.84F HX  82
LE MARS *      CLOUDY    84  75  74 S8        29.83R HX  92
SHELDON *      CLOUDY    79  77  94 S8G15     29.82F HX  83
SIOUX CITY     MOSUNNY   83  73  72 S3        29.80F HX  89
SPENCER        CLOUDY    76  73  91 SE10      29.83F
STORM LAKE *   CLOUDY    77  75  94 SE9       29.87F
$$

IAZ055>058-069>071-079>083-090>094-231700-
   SOUTHWEST IOWA

CITY           SKY/WX    TMP DP  RH WIND       PRES   REMARKS
ATLANTIC *     CLOUDY    82  73  74 S10G17    29.86R HX  88
CLARINDA *       N/A     84  75  74 MISG      29.89F HX  92
COUNCIL BLFS * CLOUDY    81  73  78 S9        29.84F HX  85
CRESTON *      PTSUNNY   84  75  74 S16       29.90F HX  92
HARLAN  *      MOSUNNY   79  73  83 CALM      29.89S HX  82
LAMONI         MOSUNNY   87  77  72 S10       29.90F HX  99
RED OAK *      CLOUDY    81  75  83 S9        29.86S HX  86
SHENANDOAH *   CLOUDY    81  77  89 S6        29.86F HX  88
$$

IAZ047>049-059>061-072>074-084-231700-
   CENTRAL IOWA

CITY           SKY/WX    TMP DP  RH WIND       PRES   REMARKS
AMES           PTSUNNY   85  80  85 SE9       29.87F HX  99
ANKENY *         N/A    N/A N/A N/A MISG        N/A
BOONE *        MOSUNNY   84  77  79 S10       29.87R HX  94
CHARITON *       N/A    N/A N/A N/A MISG        N/A
DES MOINES     PTSUNNY   90  75  61 S12       29.86F HX 100
GRINNELL*      PTSUNNY   87  76  69 SE8       29.92S HX  97
KNOXVILLE *    SUNNY     88  77  70 S13       29.88F HX 100
MARSHALLTOWN   CLOUDY    85  77  77 SE10      29.90S HX  95
NEWTON *       PTSUNNY   86  81  84 S12       29.89F HX 102
PELLA *        CLOUDY    89  76  65 S8        29.90F HX 100
PERRY *          N/A     88  80  77 S8        29.86S HX 104
$$

IAZ004>006-015-016-023>025-035-036-231700-
   NORTH CENTRAL IOWA

CITY           SKY/WX    TMP DP  RH WIND       PRES   REMARKS
ALGONA *       LGT RAIN  75  73  94 CALM      29.93R
ESTHERVILLE    LGT RAIN  73  71  93 SE9       29.85F
FORT DODGE *   CLOUDY    81  79  94 SE3       29.91R HX  89
MASON CITY     CLOUDY    77  76  96 E12       29.88F
FOREST CITY *  CLOUDY    75  75 100 SW3       29.93R
IOWA FALLS *     N/A     82  76  84 SE9       29.90F HX  89
$$

IAZ007>011-017>019-026>030-037>042-050>054-066-231700-
   NORTHEAST IOWA

CITY           SKY/WX    TMP DP  RH WIND       PRES   REMARKS
CEDAR RAPIDS   PTSUNNY   85  81  88 SE9       29.94S HX 100
CHARLES CITY * LGT RAIN  75  75 100 SE12      29.92F
CLINTON *      CLOUDY    84  78  82 SE9       29.99R HX  95
DECORAH *      CLOUDY    72  72 100 E12G18    29.95F
DUBUQUE        PTSUNNY   79  77  94 SE7       29.98F HX  83
MONTICELLO *   CLOUDY    81  79  94 SE8       29.96F HX  89
OELWEIN *      CLOUDY    79  77  94 E5        29.97R HX  83
WATERLOO       CLOUDY    80  77  90 SE6       29.91F HX  87
$$

IAZ064-065-067-068-078-231700-
   EAST CENTRAL IOWA

CITY           SKY/WX    TMP DP  RH WIND       PRES   REMARKS
DAVENPORT      PTSUNNY   85  77  77 S8        29.98R HX  95
IOWA CITY      PTSUNNY   84  79  85 SE9       29.97R HX  96
MT. PLEASANT * MOSUNNY   91  81  72 S7        29.96S HX 109
MUSCATINE *    CLOUDY    88  79  74 SE8       29.96R HX 102
QUAD CITIES    MOSUNNY   88  79  74 SE8       29.96S HX 103
$$

IAZ062-063-075>077-085>089-095>099-231700-
   SOUTHEAST IOWA

CITY           SKY/WX    TMP DP  RH WIND       PRES   REMARKS
BURLINGTON     MOSUNNY   85  79  82 SE9       29.96F HX  98
FAIRFIELD *    PTSUNNY   88  79  74 S9        29.94F HX 102
KEOKUK *       PTSUNNY   86  79  79 SE6       29.96S HX  99
CENTERVILLE *    N/A     90  77  66 S9        29.94F HX 102
OTTUMWA        MOSUNNY   88  78  72 S8        29.92F HX 101
WASHINGTON *   CLOUDY    86  81  84 S7        29.96S HX 102
$$

ABBREVIATIONS USED IN REMARKS
   TC - TEMPERATURES IN CELSIUS
  WCI - WIND CHILL INDEX
   HX - HEAT INDEX
  VSB - VISIBILITY
$$





USA.gov is the U.S. government's official web portal to all federal, state and local government web resources and services.